Regional Weather Roundup
Issued by NWS Sioux Falls, SD

Home | Current Version | Previous Version | Text Only | Print | Product List | Glossary On
Versions: 1 2 3 4 5 6 7 8 9 10 11 12 13 14 15 16 17 18 19 20 21 22 23 24 25 26 27 28 29 30 31 32 33 34 35 36 37 38 39 40 41 42 43 44 45 46 47 48 49 50
000
ASUS43 KFSD 261502
RWRFSD

WEATHER ROUNDUP FOR SE SOUTH DAKOTA/SW MINNESOTA/NW IOWA
NATIONAL WEATHER SERVICE SIOUX FALLS SD
1000 AM CDT FRI AUG 26 2016

NOTE: "FAIR" INDICATES FEW OR NO CLOUDS BELOW 12,000 FEET WITH NO
SIGNIFICANT WEATHER AND OR OBSTRUCTIONS TO VISIBILITY.


SDZ038>040-050-052>070-261600-
SOUTHEAST SOUTH DAKOTA

CITY           SKY/WX    TMP DP  RH WIND       PRES   REMARKS
BROOKINGS      SUNNY     61  54  77 S3        30.18F
CHAMBERLAIN    MOSUNNY   65  55  69 SE8       30.16F
HURON          MOSUNNY   61  52  72 VRB3      30.16F
MADISON        FAIR      61  57  88 SE5       30.19S
MITCHELL       CLOUDY    63  53  70 SE6       30.17F
SIOUX FALLS    PTSUNNY   65  56  72 E6        30.18F
WINNER         FAIR      65  53  65 S7        30.15F
YANKTON        MOSUNNY   63  54  72 NE3       30.16F
$$

MNZ071-072-080-081-089-090-097-098-261600-
SOUTHWEST MINNESOTA

CITY           SKY/WX    TMP DP  RH WIND       PRES   REMARKS
FAIRMONT       CLOUDY    62  57  83 E3        30.21F
JACKSON          N/A     63  54  72 E6        30.21F
LUVERNE        CLOUDY    61  54  77 E5        30.20S
MARSHALL       MOSUNNY   63  54  72 SE3       30.19F
MONTEVIDEO     SUNNY     68  57  68 CALM      30.20S
PIPESTONE      CLOUDY    64  52  63 E3        30.19S
REDWOOD FALLS  CLOUDY    62  56  80 CALM      30.19F
TRACY          CLOUDY    64  56  78 SE3       30.20S
WINDOM         MOSUNNY   64  55  72 SE3       30.21S
WORTHINGTON    CLOUDY    62  55  77 E6        30.21S
$$

IAZ001>003-012>014-020>022-031-032-NEZ013-014-SDZ071-261600-
NORTHWEST IOWA

CITY           SKY/WX    TMP DP  RH WIND       PRES   REMARKS
CHEROKEE       CLOUDY    61  61 100 CALM      30.18F
DENISON        CLOUDY    64  61  88 E7        30.15F FOG
ESTHERVILLE    CLOUDY    60  58  92 E6        30.20F
LE MARS        MOSUNNY   64  59  82 VRB5      30.18F
ORANGE CITY    CLOUDY    64  57  77 SE3       30.18F
SHELDON        CLOUDY    63  59  88 E9        30.18S
SIOUX CITY     CLOUDY    63  57  81 CALM      30.17S
SPENCER        PTSUNNY   62  56  80 E7        30.20S HAZE
STORM LAKE     CLOUDY    63  59  88 SE9       30.19S
$$

ABBREVIATIONS USED IN REMARKS
   TC - TEMPERATURE IN CELSIUS
  WCI - WIND CHILL INDEX
   HX - HEAT INDEX
  VSB - VISIBILITY





USA.gov is the U.S. government's official web portal to all federal, state and local government web resources and services.